Location: Düngen
(52.0952°N, 10.0219°E)
Time: 14:50:43
(UTC+00:00)

Meteor 1-5 Rocket - Pass Details

Date: 11 March 2026
Orbit: 787 x 914 km, 81.2° (Epoch: 14 April)

Event Time Altitude Azimuth Distance (km) Brightness Sun altitude
Rises 18:29:33 0° 182° (S) 3,532 7.3 -11.9°
Reaches altitude 10° 18:32:02 10° 179° (S) 2,588 6.6 -12.3°
Maximum altitude 18:37:54 68° 98° (E) 964 4.3 -13.1°
Drops below altitude 10° 18:43:39 10° 17° (NNE) 2,542 6.6 -14.0°
Sets 18:46:05 0° 15° (NNE) 3,466 7.4 -14.4°
